When you browse on this site, cookies collect data to enhance your experience and personalize the content and advertising you see.
Visit our Privacy Policy to learn more. By continuing to use the site, you agree to this use of cookies and data.
  • In Österreich
  • Länderverzeichnis
  • Für 7 Tage
  • Wassertemperatur
  • Wetterkarte
  • News
  • Widgets
  • user-avatar
    Anmelden

    Stündliche Wetter Tirana

    Heute, 1 April, Mittwoch

    Zeit Temperatur Niederschläge Wind Luftdruck Luftfeuchtigkeit
    00:00 +8°C° 0.2 mm 4 m/S 752 mmHg 86%
    01:00 +8°C° 0 mm 4 m/S 752 mmHg 85%
    02:00 +7°C° 0.4 mm 4 m/S 752 mmHg 87%
    03:00 +7°C° 0.4 mm 4 m/S 751 mmHg 89%
    04:00 +8°C° 0.4 mm 3 m/S 751 mmHg 91%
    05:00 +7°C° 1.3 mm 4 m/S 751 mmHg 92%
    06:00 +6°C° 1.3 mm 4 m/S 750 mmHg 93%
    07:00 +6°C° 1.3 mm 4 m/S 750 mmHg 94%
    08:00 +6°C° 1.9 mm 4 m/S 750 mmHg 94%
    09:00 +5°C° 1.9 mm 4 m/S 750 mmHg 95%
    10:00 +5°C° 1.9 mm 4 m/S 749 mmHg 95%
    11:00 +5°C° 1.6 mm 4 m/S 749 mmHg 94%
    12:00 +5°C° 1.6 mm 4 m/S 749 mmHg 92%
    13:00 +6°C° 1.6 mm 4 m/S 749 mmHg 91%
    14:00 +6°C° 0.4 mm 4 m/S 749 mmHg 89%
    15:00 +6°C° 0.4 mm 5 m/S 749 mmHg 88%
    16:00 +6°C° 0.4 mm 5 m/S 749 mmHg 86%
    17:00 +6°C° 0.3 mm 5 m/S 750 mmHg 88%
    18:00 +5°C° 0.3 mm 5 m/S 750 mmHg 90%
    19:00 +3°C° 0.3 mm 5 m/S 750 mmHg 93%
    20:00 +4°C° 0 mm 4 m/S 751 mmHg 92%
    21:00 +4°C° 0 mm 4 m/S 751 mmHg 92%
    22:00 +4°C° 0 mm 3 m/S 752 mmHg 91%
    23:00 +4°C° 0 mm 3 m/S 752 mmHg 90%

    Morgen, 2 April, Donnerstag

    Zeit Temperatur Niederschläge Wind Luftdruck Luftfeuchtigkeit
    00:00 +3°C° 0 mm 3 m/S 752 mmHg 89%
    01:00 +3°C° 0 mm 3 m/S 752 mmHg 88%
    02:00 +3°C° 0 mm 3 m/S 752 mmHg 87%
    03:00 +2°C° 0 mm 3 m/S 752 mmHg 86%
    04:00 +2°C° 0 mm 3 m/S 752 mmHg 85%
    05:00 +3°C° 0 mm 3 m/S 752 mmHg 82%
    06:00 +3°C° 0 mm 3 m/S 753 mmHg 79%
    07:00 +4°C° 0 mm 3 m/S 753 mmHg 77%
    08:00 +7°C° 0 mm 3 m/S 752 mmHg 72%
    09:00 +8°C° 0 mm 3 m/S 752 mmHg 67%
    10:00 +10°C° 0 mm 2 m/S 752 mmHg 62%
    11:00 +11°C° 0 mm 3 m/S 752 mmHg 61%
    12:00 +11°C° 0 mm 3 m/S 752 mmHg 60%
    13:00 +12°C° 0 mm 4 m/S 752 mmHg 59%
    14:00 +12°C° 0 mm 4 m/S 752 mmHg 62%
    15:00 +12°C° 0 mm 4 m/S 752 mmHg 64%
    16:00 +12°C° 0 mm 4 m/S 751 mmHg 66%
    17:00 +10°C° 0 mm 4 m/S 751 mmHg 73%
    18:00 +9°C° 0 mm 3 m/S 752 mmHg 79%
    19:00 +7°C° 0 mm 2 m/S 752 mmHg 85%
    20:00 +7°C° 0 mm 2 m/S 752 mmHg 84%
    21:00 +7°C° 0 mm 2 m/S 752 mmHg 83%
    22:00 +6°C° 0 mm 2 m/S 752 mmHg 83%
    23:00 +6°C° 0 mm 2 m/S 752 mmHg 81%

    übermorgen, 3 April, Freitag

    Zeit Temperatur Niederschläge Wind Luftdruck Luftfeuchtigkeit
    00:00 +6°C° 0 mm 2 m/S 752 mmHg 80%
    01:00 +6°C° 0 mm 2 m/S 752 mmHg 79%
    02:00 +5°C° 0 mm 2 m/S 752 mmHg 78%
    03:00 +5°C° 0 mm 2 m/S 752 mmHg 77%
    04:00 +5°C° 0 mm 2 m/S 752 mmHg 75%
    05:00 +6°C° 0 mm 2 m/S 752 mmHg 73%
    06:00 +8°C° 0 mm 1 m/S 752 mmHg 71%
    07:00 +9°C° 0 mm 1 m/S 752 mmHg 69%
    08:00 +11°C° 0 mm 1 m/S 752 mmHg 66%
    09:00 +12°C° 0 mm 1 m/S 752 mmHg 62%
    10:00 +14°C° 0 mm 1 m/S 752 mmHg 58%
    11:00 +15°C° 0 mm 1 m/S 752 mmHg 57%
    12:00 +15°C° 0 mm 2 m/S 752 mmHg 56%
    13:00 +16°C° 0 mm 2 m/S 752 mmHg 55%
    14:00 +15°C° 0 mm 2 m/S 752 mmHg 59%
    15:00 +14°C° 0 mm 3 m/S 752 mmHg 63%
    16:00 +13°C° 0 mm 3 m/S 752 mmHg 68%
    17:00 +12°C° 0 mm 3 m/S 752 mmHg 71%
    18:00 +11°C° 0 mm 3 m/S 752 mmHg 74%
    19:00 +10°C° 0 mm 3 m/S 752 mmHg 78%
    20:00 +10°C° 0 mm 3 m/S 752 mmHg 78%
    21:00 +10°C° 0 mm 3 m/S 753 mmHg 78%
    22:00 +10°C° 0 mm 3 m/S 753 mmHg 79%
    23:00 +9°C° 0 mm 3 m/S 753 mmHg 78%

    4 April, Samstag

    Zeit Temperatur Niederschläge Wind Luftdruck Luftfeuchtigkeit
    00:00 +9°C° 0 mm 3 m/S 752 mmHg 78%
    01:00 +7°C° 0 mm 4 m/S 752 mmHg 77%
    02:00 +7°C° 0 mm 4 m/S 752 mmHg 76%
    03:00 +8°C° 0 mm 4 m/S 752 mmHg 76%
    04:00 +8°C° 0 mm 4 m/S 752 mmHg 75%
    05:00 +8°C° 0 mm 4 m/S 752 mmHg 74%
    06:00 +10°C° 0 mm 4 m/S 752 mmHg 73%
    07:00 +11°C° 0 mm 4 m/S 752 mmHg 72%
    08:00 +13°C° 0 mm 4 m/S 752 mmHg 66%
    09:00 +15°C° 0 mm 5 m/S 752 mmHg 60%
    10:00 +17°C° 0 mm 6 m/S 752 mmHg 55%
    11:00 +17°C° 0 mm 6 m/S 752 mmHg 53%
    12:00 +19°C° 0 mm 6 m/S 752 mmHg 51%
    13:00 +19°C° 0 mm 6 m/S 752 mmHg 49%
    14:00 +19°C° 0 mm 6 m/S 751 mmHg 50%
    15:00 +17°C° 0 mm 6 m/S 751 mmHg 51%
    16:00 +17°C° 0 mm 7 m/S 750 mmHg 52%
    17:00 +15°C° 0 mm 7 m/S 751 mmHg 56%
    18:00 +12°C° 0 mm 7 m/S 751 mmHg 60%
    19:00 +10°C° 0 mm 6 m/S 751 mmHg 64%
    20:00 +10°C° 0 mm 6 m/S 752 mmHg 65%
    21:00 +10°C° 0 mm 6 m/S 752 mmHg 67%
    22:00 +9°C° 0 mm 6 m/S 752 mmHg 68%
    23:00 +9°C° 0 mm 6 m/S 752 mmHg 69%

    5 April, Sonntag

    Zeit Temperatur Niederschläge Wind Luftdruck Luftfeuchtigkeit
    00:00 +9°C° 0 mm 6 m/S 752 mmHg 69%
    01:00 +9°C° 0 mm 6 m/S 752 mmHg 69%
    02:00 +9°C° 0 mm 6 m/S 752 mmHg 69%
    03:00 +9°C° 0 mm 6 m/S 752 mmHg 69%
    04:00 +9°C° 0 mm 6 m/S 752 mmHg 69%
    05:00 +10°C° 0 mm 6 m/S 752 mmHg 69%
    06:00 +10°C° 0 mm 6 m/S 752 mmHg 69%
    07:00 +11°C° 0 mm 6 m/S 752 mmHg 69%
    08:00 +13°C° 0 mm 6 m/S 752 mmHg 64%
    09:00 +15°C° 0 mm 6 m/S 752 mmHg 59%
    10:00 +16°C° 0 mm 6 m/S 752 mmHg 54%
    11:00 +17°C° 0 mm 6 m/S 752 mmHg 53%
    12:00 +17°C° 0 mm 6 m/S 752 mmHg 51%
    13:00 +19°C° 0 mm 6 m/S 752 mmHg 49%
    14:00 +17°C° 0 mm 6 m/S 752 mmHg 51%
    15:00 +17°C° 0 mm 7 m/S 752 mmHg 52%
    16:00 +16°C° 0 mm 7 m/S 752 mmHg 54%
    17:00 +15°C° 0 mm 7 m/S 753 mmHg 57%
    18:00 +14°C° 0 mm 6 m/S 753 mmHg 60%
    19:00 +11°C° 0 mm 6 m/S 754 mmHg 63%
    20:00 +11°C° 0 mm 6 m/S 754 mmHg 64%
    21:00 +10°C° 0 mm 5 m/S 755 mmHg 64%
    22:00 +10°C° 0 mm 5 m/S 755 mmHg 65%
    23:00 +10°C° 0 mm 5 m/S 755 mmHg 66%

    6 April, Montag

    Zeit Temperatur Niederschläge Wind Luftdruck Luftfeuchtigkeit
    00:00 +9°C° 0 mm 5 m/S 756 mmHg 67%
    01:00 +9°C° 0 mm 5 m/S 756 mmHg 67%
    02:00 +9°C° 0 mm 5 m/S 756 mmHg 68%
    03:00 +9°C° 0 mm 5 m/S 756 mmHg 70%
    04:00 +10°C° 0 mm 4 m/S 757 mmHg 71%
    05:00 +10°C° 0 mm 4 m/S 757 mmHg 70%
    06:00 +11°C° 0 mm 4 m/S 757 mmHg 69%
    07:00 +12°C° 0 mm 4 m/S 758 mmHg 69%
    08:00 +13°C° 0 mm 4 m/S 758 mmHg 62%
    09:00 +15°C° 0 mm 5 m/S 758 mmHg 55%
    10:00 +16°C° 0 mm 5 m/S 759 mmHg 49%
    11:00 +17°C° 0 mm 5 m/S 759 mmHg 46%
    12:00 +17°C° 0 mm 5 m/S 759 mmHg 44%
    13:00 +19°C° 0 mm 5 m/S 759 mmHg 42%
    14:00 +17°C° 0 mm 5 m/S 759 mmHg 44%
    15:00 +17°C° 0 mm 6 m/S 758 mmHg 45%
    16:00 +16°C° 0 mm 6 m/S 758 mmHg 47%
    17:00 +15°C° 0 mm 6 m/S 759 mmHg 49%
    18:00 +14°C° 0 mm 7 m/S 759 mmHg 52%
    19:00 +11°C° 0 mm 7 m/S 759 mmHg 54%
    20:00 +11°C° 0 mm 7 m/S 760 mmHg 54%
    21:00 +10°C° 0 mm 7 m/S 760 mmHg 53%
    22:00 +9°C° 0 mm 6 m/S 760 mmHg 53%
    23:00 +9°C° 0 mm 5 m/S 760 mmHg 55%
    Mehr zeigen